RH
43 43 48 56 61 66 70 72 73 75 74 78 77 76 73 84 86 85 85 84 89 92 92 92 92 85 90 93 93 93 88 81 63 44 44 51 60 59 47 53 56 61 71
41 43 52 56 64 66 70 69 74 75 74 76 74 77 73 78 85 94 87 86 88 91 89 93 85 81 84 90 91 91 90 83 83 60 46 54 58 63 60 61 52 46 54
39 43 49 52 53 56 67 68 66 69 75 77 73 78 79 76 80 94 94 85 87 88 90 93 91 82 88 88 88 88 86 79 80 79 55 44 56 58 65 61 63 60 51
39 42 49 50 49 48 56 66 71 71 71 76 76 73 79 77 72 91 95 89 86 85 90 91 91 90 82 84 85 86 84 83 79 77 75 56 51 61 62 67 67 65 60
38 42 49 48 44 44 50 63 64 69 68 71 76 76 75 79 70 90 95 96 86 85 88 86 90 91 92 95 83 82 85 87 83 80 78 78 73 72 68 65 66 64 68
40 44 43 43 40 44 47 58 71 71 73 73 76 79 82 81 85 88 94 97 94 89 91 91 84 89 92 92 95 99 92 83 83 80 78 75 73 66 64 64 65 74 80
42 41 41 41 43 47 51 60 70 75 75 78 77 79 77 75 85 88 90 97 98 97 94 95 90 85 93 93 93 94 99 100 97 78 79 75 70 65 67 68 65 65 64
41 42 41 44 47 51 58 67 74 77 77 79 73 78 77 73 84 87 92 91 98 100 97 97 97 95 96 97 95 92 89 93 96 94 80 73 68 63 62 61 66 64 63
41 43 44 48 54 60 65 71 72 75 76 72 72 73 82 75 81 85 88 87 91 99 98 98 98 98 98 98 94 94 93 93 92 96 98 100 100 100 77 63 76 77 84
41 44 45 53 59 62 68 72 72 70 68 70 69 72 78 79 77 83 87 90 94 92 97 98 98 99 100 98 97 96 96 97 97 96 93 95 98 95 100 80 66 73 79
38 39 44 51 60 61 67 70 69 72 71 76 73 73 76 75 71 81 86 89 96 95 95 98 98 99 100 100 99 98 98 99 100 99 99 98 97 90 96 97 76 77 79
37 38 40 51 56 56 66 70 67 70 78 73 72 77 81 77 77 81 86 88 93 98 99 99 99 99 98 98 98 99 98 97 98 99 99 100 100 99 98 98 97 97 99
40 40 40 51 58 61 70 74 79 73 79 77 78 81 82 80 80 82 85 86 86 97 98 98 98 96 98 98 98 98 98 99 99 99 100 100 100 100 100 100 100 100 100
43 39 40 51 66 64 69 74 77 82 80 75 80 85 85 81 85 86 87 88 86 89 98 97 98 98 96 98 98 99 99 100 100 100 100 100 100 100 100 99 100 100 100
41 38 45 51 63 63 66 70 80 75 84 82 85 86 94 92 92 86 92 95 92 90 90 93 97 98 98 98 97 99 99 99 100 100 100 100 100 99 99 98 99 100 100
44 42 52 56 68 68 69 78 75 79 80 77 80 84 85 85 82 82 83 84 82 85 84 93 97 99 99 96 97 92 92 96 93 94 99 99 99 99 99 98 96 98 99
51 53 56 61 72 74 77 80 87 82 78 79 79 78 76 80 81 81 82 80 78 79 91 90 95 97 95 97 96 94 94 88 87 90 93 96 97 98 100 99 98 98 98
68 80 65 70 74 78 80 86 86 89 93 92 82 78 77 80 78 79 80 74 80 78 85 91 93 94 94 94 96 96 93 90 88 88 89 92 97 97 94 93 99 100 100
78 75 72 72 72 78 82 83 85 83 84 86 84 79 74 78 76 77 79 81 84 83 83 86 91 92 93 93 93 92 94 94 96 98 92 94 100 93 95 90 91 93 95
79 87 81 66 64 65 67 75 80 81 80 76 81 85 79 80 87 88 84 87 85 83 83 84 87 87 88 89 90 92 90 92 91 92 96 99 99 93 93 93 94 96 92
80 80 74 58 59 59 62 65 70 79 78 76 79 80 79 81 84 81 81 86 87 84 86 84 87 84 84 87 88 87 87 91 87 89 92 93 98 96 92 91 91 91 92
63 61 57 57 57 62 62 59 63 66 67 76 80 77 76 79 78 80 80 85 88 82 83 85 87 84 85 88 91 92 90 91 90 90 90 92 96 96 95 94 94 94 92
58 58 55 53 59 62 60 60 62 65 67 70 74 75 74 78 75 70 76 84 76 80 82 81 87 85 82 86 88 87 93 94 94 94 93 93 93 97 98 98 94 94 93
59 61 58 61 64 64 69 74 66 62 64 72 76 74 73 74 78 77 81 78 79 83 82 82 80 78 80 88 86 83 83 88 89 91 93 95 94 93 96 94 95 99 96
60 69 72 68 74 79 80 72 73 76 75 76 77 76 69 72 69 76 76 77 79 81 76 78 80 76 76 82 85 84 85 82 86 87 90 92 93 94 94 93 96 95 99
58 58 63 68 74 78 78 79 78 76 76 76 76 77 75 72 70 76 75 76 79 77 75 76 74 75 76 73 76 83 83 84 86 85 90 91 91 91 91 92 94 96 98
Wind_Speed
16 16 15 16 16 13 12 13 15 14 14 15 15 13 17 16 17 15 15 13 12 12 11 12 15 16 10 8 6 6 7 10 13 9 12 14 19 18 14 16 13 14 14
16 15 14 15 13 12 12 14 14 14 13 14 14 14 15 15 15 18 16 14 13 13 12 11 13 12 16 11 9 11 9 13 8 15 12 12 13 19 17 14 14 13 14
15 15 15 13 13 13 11 13 14 14 12 13 15 14 14 17 16 17 18 12 13 13 11 10 12 13 15 11 12 13 13 11 8 9 11 11 12 12 14 14 14 15 13
15 15 15 16 16 14 12 12 13 14 13 12 13 14 14 15 18 18 18 15 11 12 11 10 10 11 16 16 17 17 14 12 11 11 9 9 9 12 11 13 12 12 13
15 15 15 16 16 16 15 12 16 14 14 14 14 13 14 11 14 19 18 16 14 14 10 11 10 14 19 14 10 16 16 14 13 12 12 9 6 7 13 11 13 12 14
15 15 13 14 16 16 16 15 14 17 16 14 13 13 12 9 23 26 24 15 14 13 12 11 12 13 15 17 17 13 16 18 17 13 14 13 16 12 11 12 12 12 10
14 16 16 16 16 17 18 16 15 16 16 13 13 14 13 13 22 26 27 12 10 11 12 12 11 10 12 14 15 14 11 11 14 16 15 17 18 18 13 14 16 15 12
14 15 16 16 17 17 18 15 13 13 14 12 13 13 12 11 21 26 27 13 10 10 11 11 11 12 13 14 12 9 9 7 11 9 16 16 18 17 20 16 16 16 12
14 15 16 16 17 17 16 14 13 12 14 13 11 14 13 14 20 25 22 14 12 11 9 9 10 11 18 23 11 9 4 5 8 7 10 13 10 12 15 13 13 13 11
14 13 14 15 16 14 14 13 12 12 13 12 12 12 13 14 19 24 22 10 12 10 9 10 14 14 17 20 10 10 8 7 8 8 6 8 13 11 11 15 14 15 12
14 12 13 14 14 14 13 11 13 11 12 12 12 12 13 14 17 23 24 13 10 8 9 8 7 17 16 18 15 11 8 8 4 4 5 6 6 10 6 5 14 11 13
14 13 12 13 11 11 13 11 13 12 12 13 14 11 10 13 18 21 23 22 19 9 8 7 8 16 16 17 13 17 16 8 6 7 7 7 5 6 7 6 8 4 3
14 13 12 12 12 11 11 12 9 12 11 12 11 11 11 10 12 21 21 23 21 11 8 12 15 14 13 10 14 15 10 7 7 8 8 5 5 6 7 6 4 4 1
12 12 12 11 11 10 8 8 8 9 10 11 11 11 11 11 12 13 12 12 17 12 11 8 10 9 8 9 7 8 8 7 6 6 6 4 5 7 7 6 4 4 3
12 11 12 10 10 10 9 9 8 9 9 11 11 11 11 11 13 19 17 12 12 12 9 7 8 8 8 7 8 8 7 8 7 6 6 6 7 7 7 8 6 5 5
11 10 9 9 8 9 8 7 8 9 6 9 13 11 10 16 20 23 23 20 19 17 8 9 10 9 9 9 8 8 7 9 9 7 5 6 5 5 6 6 6 6 6
12 12 9 9 8 9 8 7 8 8 11 7 9 13 21 20 20 21 22 17 13 13 8 9 9 9 9 8 8 8 9 8 8 6 7 7 7 5 4 4 5 5 5
9 7 8 7 7 8 7 8 7 8 9 8 9 12 18 20 17 18 20 13 9 10 9 9 9 9 10 10 9 9 8 8 8 6 7 7 7 7 6 5 2 3 3
7 6 8 8 5 6 6 7 7 8 7 7 8 10 15 18 16 17 18 10 10 10 10 10 9 9 9 9 9 9 9 9 9 8 9 8 7 6 6 7 6 8 3
6 5 7 7 7 7 6 7 8 8 8 8 8 9 11 11 10 10 10 11 10 10 10 11 11 10 10 10 9 9 9 10 10 9 9 8 7 6 6 6 5 5 6
4 6 9 7 7 7 8 7 7 8 8 8 8 9 15 10 10 10 10 10 10 10 11 10 9 9 10 10 10 10 10 10 11 11 9 8 8 7 6 6 6 5 5
4 6 7 7 7 8 8 8 8 8 9 9 8 9 13 8 9 9 10 10 9 10 9 10 9 10 10 10 10 11 11 11 11 11 10 10 8 8 7 6 6 6 5
5 6 7 7 7 8 8 8 8 8 9 9 9 8 9 9 9 10 10 9 9 10 9 10 9 10 10 10 9 10 11 11 11 11 11 10 9 8 8 7 6 5 4
5 6 7 7 7 7 8 8 8 9 9 9 9 9 10 10 10 11 10 10 11 11 10 9 9 14 13 11 9 11 10 10 10 10 14 11 9 10 9 8 7 6 4
4 4 5 6 6 6 7 8 8 8 8 8 8 9 10 10 10 10 10 10 10 10 11 11 10 15 16 17 16 19 19 20 16 16 11 11 11 12 10 9 9 8 6
4 5 5 5 6 6 6 7 7 7 8 8 8 9 9 9 10 10 10 11 10 10 13 10 12 17 18 14 17 20 20 20 18 19 14 10 10 9 9 11 13 9 8
Wind_Direction
346 339 348 4 349 336 333 334 330 331 337 334 333 342 339 341 339 333 332 324 322 305 289 286 208 201 197 210 195 218 245 270 274 214 186 194 193 210 207 200 197 191 187
343 339 5 358 337 334 340 336 336 333 335 336 334 335 344 344 343 337 332 331 328 317 307 306 246 205 205 195 199 223 239 247 260 263 247 179 196 195 208 199 204 202 202
340 346 357 343 343 345 343 335 342 332 336 340 334 340 345 345 348 341 333 338 331 321 319 312 287 250 206 200 202 215 215 242 246 254 251 246 190 180 193 214 198 212 209
344 351 352 341 342 345 0 341 346 335 343 343 331 342 346 350 353 344 340 332 337 337 336 323 337 319 232 213 211 212 212 217 229 232 259 247 219 192 188 195 206 200 217
347 357 352 342 337 344 351 1 348 344 346 342 340 350 346 354 359 346 343 332 339 345 345 354 5 7 2 352 268 216 210 207 219 223 230 247 255 195 193 191 204 201 209
354 352 347 339 342 347 354 8 352 348 340 345 347 350 344 347 353 352 346 330 337 347 348 353 7 9 355 353 334 311 253 208 215 210 221 225 233 246 199 198 202 202 204
356 349 346 349 349 354 360 1 349 341 338 343 352 352 347 355 357 353 345 328 340 340 353 358 359 360 358 355 327 301 262 261 233 216 218 219 222 219 236 200 206 211 210
360 350 349 352 349 0 353 348 344 334 339 345 358 347 348 353 3 352 348 335 338 338 349 356 3 356 355 354 324 299 265 235 239 235 233 241 235 227 220 218 209 219 228
357 355 345 355 350 354 348 345 342 337 337 347 353 353 349 351 7 354 352 344 341 341 345 353 358 358 352 5 355 340 346 24 348 337 304 290 289 306 240 225 212 212 219
347 358 351 0 351 350 346 341 339 340 343 346 355 358 351 355 2 356 352 342 344 337 352 357 359 358 1 11 6 356 6 360 343 340 341 261 240 265 274 252 222 214 213
340 4 2 4 349 350 345 343 342 345 347 348 353 356 351 355 1 356 351 350 346 339 350 349 347 354 10 13 16 6 1 319 347 11 32 353 336 257 289 320 253 225 214
346 359 360 11 356 348 345 347 348 354 349 353 355 351 355 353 2 354 349 350 346 336 344 344 346 355 8 19 17 6 1 352 25 39 41 22 359 358 332 313 305 339 354
355 351 356 22 357 355 348 350 353 358 352 352 352 351 352 354 356 353 348 349 352 349 355 347 347 348 356 20 7 8 6 2 29 40 37 20 346 322 312 328 321 329 183
347 349 7 13 354 358 350 352 354 0 355 354 356 352 348 354 355 354 350 350 352 352 342 346 342 336 9 4 4 12 4 3 24 33 31 14 2 0 2 353 328 343 352
340 352 14 356 360 354 360 353 355 10 5 354 355 351 345 355 353 350 351 350 354 346 342 1 359 1 4 6 9 15 4 360 13 12 15 18 20 19 9 356 354 346 36
336 4 7 348 356 350 351 347 355 359 347 2 357 8 349 346 347 352 353 347 358 348 10 7 12 2 0 8 7 10 11 6 5 2 10 29 5 14 14 7 360 16 21
345 4 344 355 349 348 344 347 346 342 334 358 5 16 358 348 351 355 354 350 5 1 11 12 10 7 3 5 9 359 3 9 2 358 10 13 3 5 15 3 4 19 8
342 350 346 346 343 344 344 340 340 346 342 348 359 5 359 348 357 1 359 358 8 14 9 9 6 6 6 5 5 4 360 360 358 354 21 16 8 358 0 3 40 39 3
331 340 346 321 7 345 339 339 347 345 351 347 347 360 357 348 3 3 7 11 8 7 7 5 5 9 4 0 0 357 1 352 352 1 15 6 6 354 349 358 3 5 340
329 326 294 317 344 351 2 354 349 348 347 357 0 2 350 347 0 7 11 5 4 4 3 358 2 5 4 357 358 356 349 3 2 2 3 355 351 349 349 348 351 3 348
23 315 295 314 347 352 351 359 356 344 348 352 358 12 358 355 356 2 3 4 0 358 357 355 358 5 360 353 356 356 356 6 354 352 353 351 344 343 345 343 342 346 341
1 314 335 340 348 353 339 349 353 355 350 353 351 353 358 6 358 358 358 359 356 356 353 352 351 359 357 353 356 357 353 357 352 349 346 342 339 340 339 341 342 344 336
352 331 340 348 347 343 349 350 346 359 352 353 348 343 352 359 359 1 356 354 356 353 351 351 351 356 357 350 357 359 351 352 344 339 341 337 338 338 333 331 330 337 342
356 347 346 346 359 344 355 341 346 359 349 350 350 352 357 353 356 355 359 359 351 345 350 347 351 357 351 346 357 354 347 348 343 338 338 334 338 337 334 336 331 326 321
351 334 342 346 354 351 345 347 347 350 351 353 351 352 352 352 355 353 358 356 350 340 349 346 348 350 350 344 356 351 347 349 352 345 335 328 336 336 340 338 333 330 324
335 354 346 347 351 350 346 345 345 349 350 350 351 355 348 352 355 346 357 352 345 340 345 343 348 348 345 348 351 345 348 348 348 348 335 334 335 338 342 337 335 330 330